{"data":{"norad_id":54129,"epoch":"2026-09-20T00:16:24.528000Z","epoch_age_seconds":68195,"freshness":"FRESH","line1":"1 54129U 22138S   26263.01139500  .00000069  00000+0  14117-3 0  9996","line2":"2 54129  87.9107 286.0764 0002201  90.8338 269.3047 13.19723944189343","mean_motion":13.19723944,"eccentricity":0.0002201,"inclination_deg":87.9107,"raan_deg":286.0764,"arg_perigee_deg":90.8338,"mean_anomaly_deg":269.3047,"bstar":0.00014117,"rev_number":18934,"period_min":109.11372840864,"perigee_km":1184.1097699848,"apogee_km":1187.4394038654,"semimajor_km":7563.9115869251,"source":"CELESTRAK","updated_at":"2026-09-20T09:00:44.718352Z"}}